When you browse on this site, cookies collect data to enhance your experience and personalize the content and advertising you see.
Visit our Privacy Policy to learn more. By continuing to use the site, you agree to this use of cookies and data.
  • In Czech Republic
  • List of Countries
  • For 7 days
  • Water Temperature
  • Weather Map
  • Weather Widgets
  • user-avatar
    Login

    Hourly Weather Naftalan

    Today, 4 April, Saturday

    Time Temperature Precipitation Wind Pressure Humidity
    00:00 +11°C° 0 mm 4 mps 765 mmHg 86%
    01:00 +11°C° 0 mm 4 mps 765 mmHg 87%
    02:00 +11°C° 0 mm 4 mps 764 mmHg 87%
    03:00 +10°C° 0 mm 5 mps 764 mmHg 91%
    04:00 +10°C° 0.1 mm 5 mps 764 mmHg 90%
    05:00 +10°C° 0.1 mm 6 mps 765 mmHg 90%
    06:00 +10°C° 0.1 mm 6 mps 765 mmHg 90%
    07:00 +10°C° 0.2 mm 6 mps 765 mmHg 88%
    08:00 +11°C° 0.2 mm 6 mps 765 mmHg 87%
    09:00 +11°C° 0 mm 7 mps 766 mmHg 87%
    10:00 +11°C° 0 mm 7 mps 766 mmHg 85%
    11:00 +11°C° 0 mm 7 mps 766 mmHg 84%
    12:00 +13°C° 0 mm 6 mps 766 mmHg 82%
    13:00 +11°C° 0 mm 6 mps 766 mmHg 83%
    14:00 +11°C° 0 mm 6 mps 766 mmHg 84%
    15:00 +10°C° 0 mm 6 mps 766 mmHg 83%
    16:00 +10°C° 0.1 mm 6 mps 767 mmHg 83%
    17:00 +10°C° 0.1 mm 5 mps 768 mmHg 82%
    18:00 +10°C° 0.1 mm 5 mps 769 mmHg 82%
    19:00 +10°C° 0 mm 5 mps 769 mmHg 82%
    20:00 +9°C° 0 mm 5 mps 769 mmHg 82%
    21:00 +10°C° 0 mm 4 mps 770 mmHg 82%
    22:00 +10°C° 0 mm 4 mps 770 mmHg 82%
    23:00 +10°C° 0 mm 3 mps 770 mmHg 82%

    Tomorrow, 5 April, Sunday

    Time Temperature Precipitation Wind Pressure Humidity
    00:00 +10°C° 0 mm 2 mps 771 mmHg 82%
    01:00 +9°C° 0 mm 2 mps 771 mmHg 85%
    02:00 +9°C° 0 mm 2 mps 770 mmHg 87%
    03:00 +9°C° 0 mm 1 mps 770 mmHg 90%
    04:00 +9°C° 0 mm 1 mps 771 mmHg 90%
    05:00 +9°C° 0 mm 1 mps 771 mmHg 89%
    06:00 +9°C° 0 mm 1 mps 771 mmHg 89%
    07:00 +11°C° 0 mm 1 mps 771 mmHg 82%
    08:00 +12°C° 0 mm 1 mps 771 mmHg 76%
    09:00 +14°C° 0 mm 1 mps 771 mmHg 69%
    10:00 +15°C° 0 mm 2 mps 770 mmHg 66%
    11:00 +16°C° 0 mm 2 mps 770 mmHg 64%
    12:00 +17°C° 0 mm 3 mps 770 mmHg 61%
    13:00 +17°C° 0 mm 4 mps 769 mmHg 62%
    14:00 +17°C° 0 mm 4 mps 768 mmHg 64%
    15:00 +16°C° 0 mm 5 mps 768 mmHg 65%
    16:00 +15°C° 0 mm 5 mps 768 mmHg 69%
    17:00 +14°C° 0 mm 5 mps 767 mmHg 72%
    18:00 +13°C° 0 mm 5 mps 767 mmHg 76%
    19:00 +12°C° 0 mm 5 mps 767 mmHg 79%
    20:00 +12°C° 0 mm 5 mps 767 mmHg 81%
    21:00 +12°C° 0 mm 5 mps 767 mmHg 83%
    22:00 +10°C° 0 mm 5 mps 767 mmHg 85%
    23:00 +11°C° 0 mm 4 mps 766 mmHg 87%

    Day after tomorrow, 6 April, Monday

    Time Temperature Precipitation Wind Pressure Humidity
    00:00 +11°C° 0 mm 4 mps 766 mmHg 89%
    01:00 +11°C° 0 mm 3 mps 766 mmHg 89%
    02:00 +11°C° 0 mm 3 mps 765 mmHg 89%
    03:00 +10°C° 0 mm 3 mps 765 mmHg 90%
    04:00 +12°C° 0 mm 2 mps 765 mmHg 90%
    05:00 +12°C° 0 mm 2 mps 765 mmHg 90%
    06:00 +12°C° 0 mm 1 mps 766 mmHg 90%
    07:00 +13°C° 0 mm 2 mps 766 mmHg 83%
    08:00 +14°C° 0 mm 2 mps 766 mmHg 76%
    09:00 +16°C° 0 mm 3 mps 767 mmHg 69%
    10:00 +15°C° 0 mm 4 mps 767 mmHg 65%
    11:00 +16°C° 0 mm 6 mps 767 mmHg 62%
    12:00 +16°C° 0 mm 7 mps 768 mmHg 58%
    13:00 +16°C° 0 mm 8 mps 768 mmHg 59%
    14:00 +14°C° 0 mm 10 mps 769 mmHg 60%
    15:00 +13°C° 0 mm 11 mps 769 mmHg 62%
    16:00 +13°C° 0 mm 10 mps 770 mmHg 61%
    17:00 +12°C° 0 mm 9 mps 771 mmHg 61%
    18:00 +11°C° 0 mm 8 mps 771 mmHg 60%
    19:00 +10°C° 0 mm 8 mps 772 mmHg 61%
    20:00 +10°C° 0 mm 8 mps 773 mmHg 62%
    21:00 +10°C° 0 mm 8 mps 773 mmHg 62%
    22:00 +9°C° 0.5 mm 8 mps 773 mmHg 67%
    23:00 +7°C° 0.5 mm 9 mps 774 mmHg 71%

    7 April, Tuesday

    Time Temperature Precipitation Wind Pressure Humidity
    00:00 +6°C° 0.5 mm 9 mps 774 mmHg 75%
    01:00 +6°C° 0.8 mm 8 mps 774 mmHg 72%
    02:00 +6°C° 0.8 mm 8 mps 774 mmHg 69%
    03:00 +6°C° 0.8 mm 7 mps 773 mmHg 66%
    04:00 +6°C° 0.6 mm 7 mps 774 mmHg 67%
    05:00 +6°C° 0.6 mm 7 mps 774 mmHg 69%
    06:00 +7°C° 0.6 mm 6 mps 774 mmHg 70%
    07:00 +6°C° 0.7 mm 7 mps 774 mmHg 74%
    08:00 +5°C° 0.7 mm 8 mps 774 mmHg 78%
    09:00 +5°C° 0.7 mm 8 mps 774 mmHg 82%
    10:00 +5°C° 0.8 mm 8 mps 774 mmHg 83%
    11:00 +4°C° 0.8 mm 8 mps 774 mmHg 85%
    12:00 +3°C° 0.8 mm 9 mps 774 mmHg 87%
    13:00 +3°C° 0.5 mm 9 mps 774 mmHg 87%
    14:00 +4°C° 0.5 mm 8 mps 774 mmHg 87%
    15:00 +4°C° 0.5 mm 8 mps 773 mmHg 88%
    16:00 +3°C° 0.4 mm 9 mps 773 mmHg 88%
    17:00 +3°C° 0.4 mm 9 mps 774 mmHg 89%
    18:00 +3°C° 0.4 mm 9 mps 774 mmHg 89%
    19:00 +3°C° 0.4 mm 9 mps 774 mmHg 85%
    20:00 +4°C° 0.4 mm 8 mps 775 mmHg 80%
    21:00 +5°C° 0.4 mm 8 mps 775 mmHg 75%
    22:00 +5°C° 0.1 mm 8 mps 776 mmHg 72%
    23:00 +5°C° 0.1 mm 8 mps 776 mmHg 69%

    8 April, Wednesday

    Time Temperature Precipitation Wind Pressure Humidity
    00:00 +5°C° 0.1 mm 7 mps 776 mmHg 66%
    01:00 +4°C° 0.1 mm 7 mps 777 mmHg 68%
    02:00 +4°C° 0.1 mm 6 mps 777 mmHg 70%
    03:00 +5°C° 0.1 mm 5 mps 777 mmHg 72%
    04:00 +5°C° 0 mm 5 mps 778 mmHg 71%
    05:00 +5°C° 0 mm 4 mps 778 mmHg 69%
    06:00 +5°C° 0 mm 4 mps 778 mmHg 68%
    07:00 +6°C° 0 mm 4 mps 778 mmHg 63%
    08:00 +7°C° 0 mm 4 mps 778 mmHg 59%
    09:00 +8°C° 0 mm 4 mps 778 mmHg 54%
    10:00 +8°C° 0 mm 4 mps 777 mmHg 53%
    11:00 +8°C° 0 mm 4 mps 777 mmHg 52%
    12:00 +10°C° 0 mm 4 mps 776 mmHg 50%
    13:00 +10°C° 0 mm 4 mps 776 mmHg 51%
    14:00 +10°C° 0 mm 4 mps 775 mmHg 51%
    15:00 +10°C° 0 mm 4 mps 774 mmHg 52%
    16:00 +8°C° 0 mm 4 mps 774 mmHg 54%
    17:00 +8°C° 0 mm 4 mps 773 mmHg 57%
    18:00 +7°C° 0 mm 4 mps 773 mmHg 59%
    19:00 +7°C° 0 mm 4 mps 773 mmHg 61%
    20:00 +6°C° 0 mm 4 mps 773 mmHg 62%
    21:00 +6°C° 0 mm 4 mps 773 mmHg 63%
    22:00 +6°C° 0 mm 4 mps 773 mmHg 64%
    23:00 +6°C° 0 mm 4 mps 772 mmHg 65%

    9 April, Thursday

    Time Temperature Precipitation Wind Pressure Humidity
    00:00 +8°C° 0 mm 3 mps 772 mmHg 66%
    01:00 +8°C° 0 mm 3 mps 771 mmHg 67%
    02:00 +8°C° 0 mm 3 mps 771 mmHg 67%
    03:00 +8°C° 0 mm 3 mps 770 mmHg 67%
    04:00 +7°C° 0 mm 4 mps 770 mmHg 67%
    05:00 +7°C° 0 mm 4 mps 770 mmHg 68%
    06:00 +7°C° 0 mm 4 mps 770 mmHg 68%
    07:00 +8°C° 0 mm 4 mps 769 mmHg 67%
    08:00 +8°C° 0 mm 5 mps 769 mmHg 65%
    09:00 +9°C° 0 mm 5 mps 769 mmHg 64%
    10:00 +10°C° 0 mm 4 mps 768 mmHg 66%
    11:00 +10°C° 0 mm 4 mps 768 mmHg 67%
    12:00 +10°C° 0 mm 3 mps 767 mmHg 68%
    13:00 +10°C° 0 mm 3 mps 767 mmHg 69%
    14:00 +10°C° 0 mm 3 mps 767 mmHg 71%
    15:00 +10°C° 0 mm 3 mps 766 mmHg 72%
    16:00 +9°C° 0 mm 3 mps 766 mmHg 74%
    17:00 +9°C° 0 mm 2 mps 766 mmHg 75%
    18:00 +9°C° 0 mm 2 mps 766 mmHg 77%
    19:00 +9°C° 0 mm 2 mps 766 mmHg 78%
    20:00 +10°C° 0 mm 1 mps 766 mmHg 79%
    21:00 +10°C° 0 mm 1 mps 766 mmHg 80%
    22:00 +9°C° 0 mm 1 mps 766 mmHg 80%
    23:00 +9°C° 0 mm 1 mps 765 mmHg 80%
    Show more